AirNav   Everest Fuels
 
 1300 users online  

75MU Pershing Regional Health Center -Marceline Heliport
Marceline, Missouri, USA

GOING TO MARCELINE?


FAA INFORMATION EFFECTIVE 02 JANUARY 2020

Location

FAA Identifier: 75MU
Lat/Long: 39-43-46.8600N 092-56-40.4900W
39-43.781000N 092-56.674833W
39.7296833,-92.9445806
(estimated)
Elevation: 860 ft. / 262 m (estimated)
Variation: 04E (1985)
From city: 1 mile NE of MARCELINE, MO
Time zone: UTC -6 (UTC -5 during Daylight Saving Time)
Zip code: 64658

Heliport Operations

Heliport use: Private use, MEDICAL.
Activation date: 06/1987
Control tower: no
ARTCC: KANSAS CITY CENTER
FSS: COLUMBIA FLIGHT SERVICE STATION
Attendance: UNATNDD
Segmented circle: no

Heliport Communications

WX AWOS-AV at MO8 (4 nm NW): 118.425 (660-258-2151)

Nearby radio navigation aids

VOR radial/distance  VOR name  Freq  Var
MCMr276/21.8MACON VOR/DME112.9006E
IRKr208/29.2KIRKSVILLE VORTAC114.6006E

 
NDB name  Hdg/Dist  Freq  Var  ID
TRENTON122/36.540003ETRX - .-. -..-

Heliport Services

Runway Information

Helipad H1

Dimensions: 20 x 20 ft. / 6 x 6 m
Surface: concrete
Latitude: 39-43.781000N
Longitude: 092-56.674833W
Elevation: 860.0 ft.
Traffic pattern: leftleft

Heliport Ownership and Management from official FAA records

Ownership: Privately-owned
Owner: PERSHING REGL HEALTH CENTER
225 W. HAYDEN
MARCELINE, MO 64658
Phone 816-376-3521
Manager: ED MURPHY
225 W HAYDEN
MARCELINE, MO 64658
Phone 816-376-2222

Additional Remarks

FOR CD CTC KANSAS CITY ARTCC AT 913-254-8508.

Instrument Procedures

There are no published instrument procedures at 75MU.

Some nearby airports with instrument procedures:

MO8 - North Central Missouri Regional Airport (4 nm NW)
K89 - Macon-Fower Memorial Airport (23 nm E)
KCHT - Chillicothe Municipal Airport (26 nm W)
KIRK - Kirksville Regional Airport (29 nm NE)
KMBY - Omar N Bradley Airport (29 nm SE)
 
Loc | Ops | Rwys | IFR | FBO | Links
Com | Nav | Svcs | Stats | Notes

Kansas City Aviation Department
 
Area around 75MU (Pershing Regional Health Center -Marceline Heliport)
 
Road maps at: MapQuest Bing Google
 
Aerial photo
No photo
 
Sectional chart

 
Airport distance calculator
Flying to Pershing Regional Health Center -Marceline Heliport? Find the distance to fly.

From to 75MU

Sunrise and sunset
Times for 25-Jan-2020
 Local
(UTC-6)
 Zulu
(UTC)
Morning civil twilight06:5812:58
Sunrise07:2713:27
Sunset17:2223:22
Evening civil twilight17:5123:51

Current date and time
Zulu (UTC)  25-Jan-2020 06:10:12
Local (UTC-6)  25-Jan-2020 00:10:12
 
METAR
KIRK 
29nm NE 
250555Z AUTO 30010KT 10SM OVC011 M01/M03 A2999 RMK AO2 SLP166 T10111028 10000 21011 400061011 53006
KCDJ 
30nm W 
250552Z AUTO M01/M02 A3005 RMK AO1 SLP189 T10061022 10000 21006 400061006 51007
KMHL 
40nm S 
250535Z AUTO 29005KT 10SM OVC016 00/M01 A3005 RMK AO2 TSNO PWINO
KVER 
49nm S 
250555Z AUTO 30009KT 10SM BKN014 OVC021 01/M02 A3003 RMK AO2 T00071018 10130 21134
TAF
NOTAMs
Click for the latest NOTAMs
NOTAMs are issued by the DoD/FAA and will open in a separate window not controlled by AirNav.

 

 
 

Would you like to see your business listed on this page?

 If your business provides an interesting product or service to pilots, flight crews, aircraft, or users of the Pershing Regional Health Center -Marceline Heliport, you should consider listing it here.  To start the listing process, click on the button below
 
Add a business
 

Other Pages about Pershing Regional Health Center -Marceline Heliport

Update a link
 
Copyright © AirNav, LLC. All rights reserved. Privacy Policy  Contact